TimeEST,TemperatureF,Dew PointF,Humidity,Sea Level PressureIn,VisibilityMPH,Wind Direction,Wind SpeedMPH,Gust SpeedMPH,PrecipitationIn,Events,Conditions,WindDirDegrees,DateUTC
12:54 AM,30.9,15.1,52,30.01,10.0,NE,4.6,-,N/A,,Overcast,50,2013-01-24 05:54:00
1:54 AM,30.0,15.1,54,30.00,10.0,NE,5.8,-,N/A,,Overcast,50,2013-01-24 06:54:00
2:54 AM,32.0,16.0,52,29.99,10.0,Calm,Calm,-,N/A,,Overcast,0,2013-01-24 07:54:00
3:54 AM,37.0,17.1,44,30.01,10.0,WNW,19.6,27.6,N/A,,Overcast,290,2013-01-24 08:54:00
4:54 AM,32.0,16.0,52,30.04,10.0,NNW,20.7,29.9,N/A,,Overcast,330,2013-01-24 09:54:00
5:54 AM,30.9,10.9,43,30.07,10.0,NW,23.0,33.4,N/A,,Mostly Cloudy,310,2013-01-24 10:54:00
6:54 AM,30.0,10.9,45,30.12,10.0,WNW,21.9,46.0,N/A,,Mostly Cloudy,300,2013-01-24 11:54:00
7:54 AM,28.0,8.1,43,30.18,10.0,NW,25.3,36.8,N/A,,Mostly Cloudy,310,2013-01-24 12:54:00
8:54 AM,25.0,3.9,41,30.26,10.0,NNW,21.9,28.8,N/A,,Mostly Cloudy,340,2013-01-24 13:54:00
9:54 AM,26.1,3.0,37,30.32,10.0,North,19.6,25.3,N/A,,Mostly Cloudy,350,2013-01-24 14:54:00
10:54 AM,26.1,1.9,35,30.36,10.0,NNW,17.3,29.9,N/A,,Mostly Cloudy,330,2013-01-24 15:54:00
11:54 AM,27.0,-0.0,31,30.40,10.0,North,21.9,32.2,N/A,,Scattered Clouds,10,2013-01-24 16:54:00
12:54 PM,27.0,-2.0,29,30.41,10.0,North,19.6,-,N/A,,Partly Cloudy,350,2013-01-24 17:54:00
1:54 PM,28.9,-0.9,28,30.40,10.0,NW,13.8,25.3,N/A,,Partly Cloudy,310,2013-01-24 18:54:00
2:54 PM,30.0,-0.9,27,30.42,10.0,NW,9.2,23.0,N/A,,Partly Cloudy,320,2013-01-24 19:54:00
3:54 PM,28.9,-2.9,25,30.44,10.0,North,17.3,-,N/A,,Partly Cloudy,350,2013-01-24 20:54:00
4:54 PM,26.1,-2.0,30,30.46,10.0,NW,11.5,-,N/A,,Partly Cloudy,320,2013-01-24 21:54:00
5:54 PM,24.1,-0.9,34,30.49,10.0,NNW,8.1,-,N/A,,Partly Cloudy,330,2013-01-24 22:54:00
6:54 PM,21.9,-0.0,38,30.53,10.0,NNW,8.1,-,N/A,,Clear,340,2013-01-24 23:54:00
7:54 PM,21.0,1.0,42,30.54,10.0,NNW,9.2,-,N/A,,Clear,330,2013-01-25 00:54:00
8:54 PM,21.0,1.0,42,30.54,10.0,NNW,9.2,-,N/A,,Clear,340,2013-01-25 01:54:00
9:54 PM,19.9,1.0,44,30.55,10.0,North,6.9,-,N/A,,Clear,350,2013-01-25 02:54:00
10:54 PM,19.0,1.9,47,30.54,10.0,North,5.8,-,N/A,,Clear,360,2013-01-25 03:54:00
11:54 PM,19.9,1.9,46,30.53,10.0,Calm,Calm,-,N/A,,Clear,0,2013-01-25 04:54:00